Weather History for Telfer, WE

Change the Weather History Date:

Friday, September 21, 2012

  Actual Average Record
Temperature  
Mean Temperature 82 °F -  
Max Temperature 100 °F - - ()
Min Temperature 65 °F - - ()
Cooling Degree Days 18    
Growing Degree Days 32 (Base 50)    
Moisture  
Dew Point 35 °F    
Average Humidity 15    
Maximum Humidity 35    
Minimum Humidity 4    
Precipitation  
Precipitation 0.00 in - - ()
Sea Level Pressure  
Sea Level Pressure 29.90 in    
Wind  
Wind Speed 8 mph ()    
Max Wind Speed 18 mph    
Max Gust Speed 30 mph    
T = Trace of Precipitation, MM = Missing Value Source: Averaged Metar Reports

Daily Weather History Graph

Daily Weather History Graph

Search for Another Location

Airport:

Trip Planner

Search our weather history database for the weather conditions in past years. The results will help you decide how hot, cold, wet, or windy it might be!

Date:

Astronomy

Sep. 21, 2012 Rise Set
Actual Time 5:41 AM AWST 5:46 PM AWST
Civil Twilight 5:19 AM AWST 6:09 PM AWST
Nautical Twilight 4:53 AM AWST 6:35 PM AWST
Astronomical Twilight 4:27 AM AWST 7:00 PM AWST
Moon 9:30 AM AWST (9/21) 11:10 PM AWST (9/21)
Length of Visible Light 12h 49m
Length of Day
12h 05m
Waxing Crescent, 32% of the Moon is Illuminated
Sep 21
Waxing Crescent
Sep 23
First Quarter
Sep 30
Full
Oct 8
Last Quarter
Oct 15
New

Hourly Weather History & Observations

Time (AWST) Temp. Dew Point Humidity Pressure Visibility Wind Dir Wind Speed Gust Speed Precip Events Conditions
12:00 AM 78 °F 37 °F 13% 29.90 in - WSW 5.8 mph - -  
12:00 AM 77.0 °F 37.4 °F 24% 29.92 in - WSW 5.8 mph - N/A   Unknown
1:00 AM 75.2 °F 37.4 °F 25% 29.92 in - WNW 5.8 mph - N/A   Unknown
2:00 AM 75 °F 36 °F 14% 29.89 in - West 4.6 mph - -  
2:00 AM 75.2 °F 35.6 °F 24% 29.92 in - West 4.6 mph - N/A   Unknown
3:00 AM 68.0 °F 35.6 °F 30% 29.92 in - South 2.3 mph - N/A   Unknown
4:00 AM 68.0 °F 37.4 °F 33% 29.92 in - NW 4.6 mph - N/A   Unknown
5:00 AM 66 °F 37 °F 23% 29.91 in - Calm Calm - -  
5:00 AM 66.2 °F 37.4 °F 35% 29.95 in - Calm Calm - N/A   Unknown
6:00 AM 70 °F 37 °F 19% 29.92 in - SW 2.3 mph - -  
6:00 AM 69.8 °F 37.4 °F 31% 29.95 in - SW 2.3 mph - N/A   Unknown
7:00 AM 75.2 °F 37.4 °F 25% 29.95 in - SSW 4.6 mph - N/A   Unknown
8:00 AM 83 °F 37 °F 11% 29.94 in - SE 4.6 mph - -  
8:00 AM 82.4 °F 37.4 °F 20% 29.98 in - SE 4.6 mph - N/A   Unknown
9:00 AM 89 °F 35 °F 8% 29.94 in - ESE 5.8 mph - -  
9:00 AM 89.6 °F 35.6 °F 15% 29.98 in - ESE 5.8 mph - N/A   Unknown
10:00 AM 91.4 °F 33.8 °F 13% 29.98 in - East 4.6 mph - N/A   Unknown
11:00 AM 94 °F 36 °F 6% 29.91 in - WNW 9.2 mph - -  
11:00 AM 93.2 °F 35.6 °F 13% 29.95 in - WNW 9.2 mph - N/A   Unknown
12:00 PM 97 °F 34 °F 5% 29.88 in - NNW 13.8 mph - -  
12:00 PM 96.8 °F 33.8 °F 11% 29.92 in - NNW 13.8 mph - N/A   Unknown
12:59 PM 98.6 °F 32.0 °F 10% 29.86 in - WNW 17.3 mph 29.9 mph N/A   Unknown
1:00 PM 98.6 °F 32.0 °F 10% 29.86 in - WNW 18.4 mph 29.9 mph N/A   Unknown
2:00 PM 98 °F 32 °F 4% 29.82 in - WNW 17.3 mph - -  
2:00 PM 98.6 °F 32.0 °F 10% 29.86 in - WNW 17.3 mph - N/A   Unknown
2:11 PM 100.4 °F 33.8 °F 10% 29.86 in - WNW 17.3 mph 28.8 mph N/A   Unknown
3:00 PM 98 °F 33 °F 5% 29.81 in - NW 15.0 mph - -  
3:00 PM 98.6 °F 32.0 °F 10% 29.83 in - NW 15.0 mph - N/A   Unknown
3:08 PM 98.6 °F 33.8 °F 10% 29.86 in - NW 17.3 mph 28.8 mph N/A   Unknown
4:00 PM 96.8 °F 33.8 °F 11% 29.86 in - NW 18.4 mph - N/A   Unknown
5:00 PM 96 °F 33 °F 5% 29.82 in - WNW 17.3 mph - -  
5:00 PM 95.0 °F 32.0 °F 11% 29.86 in - WNW 17.3 mph - N/A   Unknown
6:00 PM 92 °F 34 °F 6% 29.85 in - WNW 15.0 mph - -  
6:00 PM 91.4 °F 33.8 °F 13% 29.89 in - WNW 15.0 mph - N/A   Unknown
7:00 PM 87.8 °F 35.6 °F 16% 29.89 in - WNW 11.5 mph - N/A   Unknown
8:00 PM 86 °F 35 °F 8% 29.90 in - WNW 11.5 mph - -  
8:00 PM 86.0 °F 35.6 °F 17% 29.92 in - WNW 11.5 mph - N/A   Unknown
9:00 PM 84 °F 36 °F 10% 29.91 in - WNW 12.7 mph - -  
9:00 PM 84.2 °F 35.6 °F 18% 29.95 in - WNW 12.7 mph - N/A   Unknown
10:00 PM 82.4 °F 37.4 °F 20% 29.95 in - WNW 15.0 mph - N/A   Unknown
11:00 PM 81 °F 40 °F 14% 29.91 in - NW 11.5 mph - -  
11:00 PM 80.6 °F 41.0 °F 24% 29.95 in - NW 11.5 mph - N/A   Unknown